Location: Newark
(42.8481°N, 0.4872°E)
Time: 20:46:14
(UTC+00:00)

Transit 2A - Pass Details

Date: 03 November 2020
Orbit: 595 x 963 km, 66.7° (Epoch: 03 December)

Event Time Altitude Azimuth Distance (km) Brightness Sun altitude
Rises 08:37:33 0° 327° (NNW) 3,406 8.8 18.2°
Reaches altitude 10° 08:40:08 10° 325° (NW) 2,409 8.1 18.5°
Maximum altitude 08:45:36 69° 243° (WSW) 802 6.4 19.3°
Drops below altitude 10° 08:50:28 10° 160° (SSE) 2,149 9.7 19.9°
Sets 08:52:41 0° 158° (SSE) 3,011 10.3 20.2°
